User: anonymous   Login
Location: Caltech
(34.1382°N, 118.1253°W)
Time: 07:54:09
(UTC-08:00)
Language:

Iridium 65 - Orbit

View from above orbital plane
View from above orbital plane
View from above satellite
View from above satellite

Ground track
Ground track

The orbit data is extracted from the following two-line orbital elements,

1 25288U 98021D   15058.53510512  .00000264  00000-0  87274-4 0  9990
2 25288 086.3965 215.2214 0001939 100.4213 326.9228 14.34218991884525
Epoch (UTC): 27 February 2015 12:50:33
Eccentricity: 0.0001939
inclination: 86.3965°
perigee height: 776 km
apogee height: 779 km
right ascension of ascending node: 215.2214°
argument of perigee: 100.4213°
revolutions per day: 14.34218991
mean anomaly at epoch: 326.9228°
orbit number at epoch: 88452

The dashed part of the orbit path shows where the satellite is in the earth's shadow,  

DLR